Location: Brunsbüttel
(52.3892°N, 10.6138°E)
Time: 23:45:30
(UTC+00:00)

Meteor 2-6 Rocket - Pass Details

Date: 19 May 2025
Orbit: 804 x 914 km, 81.3° (Epoch: 22 June)

Event Time Altitude Azimuth Distance (km) Brightness Sun altitude
Exits shadow 21:30:08 11° 195° (SSW) 2,481 6.2 -14.2°
Maximum altitude 21:35:47 81° 283° (WNW) 897 4.4 -14.5°
Drops below altitude 10° 21:41:31 10° 12° (NNE) 2,512 7.5 -14.9°
Sets 21:43:56 0° 13° (NNE) 3,436 8.3 -15.0°
